User: anonymous   Login
Location: Knowlton
(51.2333°N, 1.2667°E)
Time: 14:07:02
(UTC+00:00)
Language:

Cosmos 1741 Rocket - Orbit

View from above orbital plane
View from above orbital plane
View from above satellite
View from above satellite

Ground track
Ground track

The orbit data is extracted from the following two-line orbital elements,

1 16682U 86030B   21170.96427792  .00000028  00000-0  18652-4 0  9993
2 16682  74.0273  57.9838 0014025  36.7935  62.8618 14.35948785841270
Epoch (UTC): 19 June 2021 23:08:33
Eccentricity: 0.0014025
inclination: 74.0273°
perigee height: 762 km
apogee height: 782 km
right ascension of ascending node: 57.9838°
argument of perigee: 36.7935°
revolutions per day: 14.35948785
mean anomaly at epoch: 62.8618°
orbit number at epoch: 84127

The dashed part of the orbit path shows where the satellite is in the earth's shadow,  

DLR